COSMOS 374 DEB

基本信息
目录编号:
5337
目录名称:
COSMOS 374 DEB
国际标识:
1970-089BS
轨道中心:
EARTH
物体状态:
在轨
发射日期:
1970-10-23 UTC
轨道信息
数据来源: 国际轨道数据
星历时间: 2026-09-09T12:35:04+0800
半长轴: 7640.015km
偏心率: 0.0771925
轨道倾角: 62.953°
近地点辐角: 343.746°
升交点赤经: 312.367°
平近点角: 13.998°
近地点: 672.126km
远地点: 1851.63km
周期: 110.765分钟
每日圈数: 13.000544
详细信息
发射场:
TTMTR
轨道高度:
LEO
数据来源:
AOE Integration Group
参考系:
TEME
时间系统:
UTC
历元类型:
SGP4
2D轨道图
3D轨道图
轨道高度分析图
轨道倾角分析图
轨道综合分析图
查看轨道综合分析图